Back to catalog

STARLINK-5509

AliveCommunicationsVLEO
NORAD 57263·PAYLOAD·🇺🇸 United States

Launched Jul 7, 2023 from Vandenberg Space Force Base

Loading…

Next Passes (next 24 hours)

TLE

FreshSource: CelesTrak SupGP

Epoch: Sep 14, 2026, 13:19 UTC

1 57263C 23094AX  26257.55534722 -.00022653  00000+0 -82067-3 0  2578
2 57263  43.0008  43.9734 0001313 266.3231  20.1796 15.27582208    17

Track STARLINK-5509 in real time with AllMySat

Download on the App Store